Temp
22 22 21 21 22 23 23 22 22 23 22 22 22 22 21 21 21 23 23 23 24 24 22 22 24 24 24 24 25 25 24 25 25 22 20 20 20 20 20 19 19 19 19 19 18 18 18 19 19 19 19 19 19 19 18 18 18 18 19 18 18 18 18 18 18 18 18 18 18 17 18 18 17 17 17 17 16 16 16 16 16 16 15 15 15 15
22 21 21 23 23 23 23 22 22 22 22 23 22 22 22 21 22 23 23 23 24 24 22 22 23 23 23 24 24 24 25 25 25 23 21 20 20 20 20 20 19 19 19 18 17 17 17 18 18 18 18 19 19 18 18 18 18 18 18 18 18 18 18 18 18 18 18 18 18 18 18 18 17 17 17 17 16 16 16 16 16 15 15 15 15 15
21 21 22 23 22 21 22 22 23 23 23 22 22 22 21 21 22 23 23 23 23 24 23 22 23 23 24 23 22 23 25 26 25 24 22 20 20 20 20 20 20 19 19 18 17 17 17 17 17 17 17 18 18 18 18 18 18 18 18 19 18 18 18 18 18 18 18 18 18 18 18 18 17 17 17 17 16 16 16 16 16 15 15 15 15 15
21 21 23 23 20 21 22 22 23 23 22 22 22 21 21 21 21 21 23 23 23 23 22 22 22 22 23 23 23 23 23 25 25 25 23 21 20 21 21 20 20 19 19 18 17 17 16 17 17 17 17 17 18 18 17 18 18 18 18 19 18 18 18 18 18 18 18 18 18 18 18 17 17 17 16 16 15 16 16 16 15 15 15 15 15 15
21 22 23 22 21 23 23 22 23 22 22 22 22 21 21 22 22 21 22 23 23 22 22 23 21 22 23 23 24 24 22 23 24 24 25 23 21 21 21 20 20 19 19 18 18 17 16 16 16 17 17 17 17 17 17 18 18 18 18 19 18 18 18 18 18 18 18 18 18 18 17 17 17 16 16 16 15 15 16 15 15 16 16 15 15 14
21 22 22 22 22 23 23 22 23 22 21 21 22 22 22 22 22 21 22 22 21 21 22 22 20 20 22 22 23 23 22 23 23 22 24 24 22 21 21 21 20 19 19 18 18 17 17 16 16 17 16 16 16 17 17 18 18 18 18 18 19 18 18 18 18 18 18 18 18 18 17 17 16 16 16 16 16 16 16 16 16 16 16 16 15 14
22 22 22 22 22 22 22 22 22 22 21 20 22 23 23 22 22 21 21 20 20 20 21 21 20 20 20 21 23 23 23 23 23 21 23 23 22 21 21 22 21 19 18 18 18 17 17 16 16 16 16 16 16 17 18 18 18 18 18 18 19 19 18 18 18 18 18 18 18 18 18 17 17 16 16 16 16 16 16 16 16 16 16 16 15 15
22 22 21 22 22 22 22 22 22 22 21 21 22 24 23 22 22 21 21 20 20 20 20 20 21 20 19 21 23 22 22 23 23 22 22 22 22 22 22 22 21 19 18 18 18 18 17 17 16 16 16 17 17 17 17 18 18 18 18 18 18 18 18 17 18 18 18 18 18 18 18 17 17 17 16 16 16 16 16 16 16 16 16 16 16 15
22 22 22 22 23 22 22 23 22 22 22 22 23 23 23 22 22 22 21 21 20 20 20 20 20 19 19 21 21 21 21 22 23 23 23 22 22 21 22 22 21 19 18 18 18 18 18 17 17 17 17 17 17 17 18 18 18 18 18 18 18 18 18 18 18 18 18 18 18 18 18 17 17 17 17 17 16 16 16 16 15 15 15 15 15 15
22 23 23 23 23 22 23 24 23 22 22 23 23 22 23 22 22 22 21 21 20 20 20 20 20 20 19 20 21 21 21 22 23 23 23 23 22 22 22 22 22 20 18 18 18 18 18 17 17 17 17 17 17 17 18 18 18 18 18 18 18 18 18 18 18 18 17 18 18 18 17 17 17 16 17 17 16 16 16 16 15 15 15 15 15 15
22 23 23 23 24 23 24 24 23 23 23 22 22 22 22 22 22 21 21 20 20 19 20 20 20 19 19 20 21 21 22 23 23 23 23 22 21 22 22 22 23 22 20 18 18 18 18 18 18 17 17 17 17 17 17 17 17 18 18 18 18 18 18 18 18 18 17 17 18 17 17 17 17 16 16 16 16 16 16 16 15 15 15 14 14 14
22 23 22 23 24 24 24 23 22 22 22 22 21 21 21 20 21 20 20 20 19 19 20 20 19 19 19 20 21 22 23 23 22 23 25 23 21 21 22 22 23 23 21 18 18 18 18 17 17 17 17 17 17 17 17 17 17 17 18 18 18 17 18 18 18 18 18 17 17 17 17 17 17 17 17 16 16 16 16 16 16 15 15 14 14 14
22 23 22 23 24 24 23 23 22 22 22 22 21 21 20 19 19 19 19 19 18 19 20 20 19 19 19 20 21 22 23 23 22 23 24 24 22 22 22 22 22 23 22 19 17 18 18 17 17 16 16 17 17 17 17 17 17 17 17 18 17 17 17 18 18 18 17 17 17 17 17 17 17 17 17 17 16 16 16 16 16 15 15 14 14 14
21 22 22 22 23 24 23 22 21 22 22 22 21 21 20 19 18 18 18 17 18 19 20 19 20 19 19 21 22 22 22 22 22 23 24 23 23 22 22 22 22 22 22 20 18 17 18 17 16 16 17 17 17 17 17 17 17 17 17 17 17 17 18 18 18 18 17 17 17 17 17 17 17 17 17 17 17 16 16 16 16 16 15 15 14 14
20 20 22 22 22 23 23 23 22 22 22 22 21 20 20 19 19 18 18 18 18 19 19 19 20 19 20 21 22 21 21 21 22 22 23 23 22 23 23 22 21 21 21 20 18 17 18 17 17 17 17 17 17 17 17 17 17 17 17 17 17 17 17 17 18 17 17 17 17 17 17 17 17 17 17 16 17 16 16 16 16 16 15 15 14 14
20 20 22 22 22 23 22 22 23 23 22 21 20 20 20 20 20 19 18 19 19 19 19 19 20 19 20 21 22 21 21 21 21 21 21 22 22 22 22 21 21 21 20 20 19 18 18 17 17 17 17 17 17 17 17 17 17 17 17 17 17 17 17 17 18 17 17 17 17 17 17 17 17 17 16 16 16 16 16 16 16 15 15 15 14 14
19 20 21 21 22 23 22 22 23 22 21 20 20 21 21 21 21 20 18 18 17 18 18 18 19 20 20 21 21 21 20 20 20 20 20 20 20 20 20 20 20 20 20 20 19 18 18 17 17 17 17 17 17 17 17 17 17 17 17 17 17 17 17 17 17 17 17 17 17 17 17 17 17 16 16 16 16 16 16 15 15 15 15 14 14 14
19 20 20 21 21 21 21 22 23 22 22 21 20 21 21 20 20 19 18 18 17 17 17 17 19 20 20 20 21 20 20 19 19 19 19 19 19 18 18 19 19 19 19 21 21 20 18 17 17 17 17 18 18 17 17 17 17 17 17 17 17 17 17 17 17 17 17 17 17 17 17 17 17 16 16 16 16 16 15 15 15 15 14 14 14 14
19 20 19 20 20 20 21 22 22 21 21 20 20 21 20 20 19 19 18 18 17 17 17 17 18 18 19 20 20 20 19 18 18 18 18 18 18 18 18 18 18 18 18 19 20 21 19 17 16 17 17 18 18 17 17 17 17 17 17 17 17 18 17 17 17 17 17 17 17 17 17 17 17 16 16 16 16 15 15 15 14 14 14 14 14 14
19 19 19 19 19 20 21 21 20 19 19 20 20 20 19 19 19 18 18 18 18 17 17 17 17 18 19 19 19 20 19 18 18 18 18 18 17 18 17 17 18 18 18 17 18 20 20 18 17 17 17 17 18 18 17 17 17 17 17 17 17 18 17 17 17 17 17 17 17 17 17 17 17 16 16 16 15 15 15 15 14 14 14 14 13 13
19 18 18 19 19 19 20 19 18 18 18 18 18 18 19 19 19 18 18 18 18 17 17 16 16 18 19 19 19 20 19 18 18 17 17 18 17 18 17 17 18 18 18 18 17 19 20 19 19 19 17 17 17 17 17 17 17 17 17 17 17 17 17 16 16 17 17 17 17 17 17 17 17 16 16 15 15 15 15 15 14 14 14 14 13 13
18 18 17 18 18 19 19 18 18 18 18 18 18 18 18 18 18 18 17 17 17 17 17 16 16 18 19 19 20 19 18 17 18 18 17 17 17 18 17 17 17 17 18 18 18 19 19 18 19 19 18 18 17 17 17 17 17 17 17 17 17 17 17 17 16 16 17 17 17 17 17 17 16 16 16 15 15 15 15 14 14 14 14 13 13 13
17 17 17 17 17 17 18 18 19 18 19 19 18 18 18 17 17 17 17 17 17 17 16 16 16 18 19 19 19 19 17 17 17 18 18 17 17 17 17 17 17 17 18 17 18 18 17 17 19 20 19 18 18 17 17 17 17 17 17 17 17 17 17 17 17 17 17 17 17 17 17 16 16 16 15 15 15 14 14 14 14 14 13 13 13 13
17 17 16 16 16 16 17 19 19 18 19 18 17 18 18 17 17 17 16 16 17 17 16 16 16 18 18 17 18 17 17 17 17 17 18 18 17 17 17 18 18 18 18 17 17 17 15 17 19 19 18 18 18 17 17 17 17 17 17 17 17 17 17 17 17 17 17 17 17 16 16 16 16 16 15 15 14 14 14 14 14 13 13 13 13 12
18 16 16 15 15 15 16 17 18 18 18 17 16 16 17 16 17 17 16 16 16 16 17 16 16 17 17 16 17 17 16 17 17 17 18 18 18 17 17 17 17 17 17 17 17 17 16 16 17 18 19 18 18 18 18 17 17 17 17 17 16 17 17 17 17 17 17 16 16 15 15 16 15 15 15 14 14 14 14 14 13 13 13 13 12 12
17 16 16 15 14 14 14 15 16 17 16 15 16 16 16 16 16 17 16 16 16 15 16 16 16 17 17 16 17 17 17 18 18 17 17 17 17 18 17 17 16 16 16 16 16 17 17 16 15 16 18 18 18 18 18 18 17 17 16 16 16 16 16 16 16 16 16 15 15 15 15 15 15 15 15 14 14 14 14 13 13 13 13 12 12 12
16 15 16 16 15 14 14 15 16 16 15 15 15 15 15 15 16 17 16 15 16 15 15 16 16 17 17 16 16 17 17 18 18 18 17 17 17 17 17 16 16 15 16 16 16 16 16 16 15 15 15 17 18 18 18 18 18 18 17 17 17 17 17 16 16 16 15 15 14 14 15 15 15 15 14 14 14 14 13 13 13 13 13 12 12 11
16 15 15 15 15 15 15 15 16 15 15 15 15 15 15 15 15 16 15 15 15 15 14 15 16 16 16 15 15 17 17 17 18 18 18 18 17 16 16 16 16 16 16 16 16 16 15 16 16 14 14 15 17 18 18 18 18 18 18 17 17 17 17 16 16 15 15 14 14 14 14 15 15 15 14 14 14 13 13 13 13 12 12 12 12 11
15 15 15 15 15 15 14 14 15 15 15 15 15 15 15 14 15 15 15 15 15 14 15 15 15 15 15 15 15 16 17 17 17 17 17 16 16 15 15 16 16 16 16 16 16 15 15 15 15 13 13 15 16 17 18 18 17 17 16 16 17 16 16 16 16 15 15 14 14 14 14 14 14 14 14 14 13 13 13 13 12 12 12 12 11 11
15 14 15 14 14 14 14 15 15 15 14 15 15 14 14 14 15 15 15 15 14 14 15 14 13 14 14 14 14 15 16 16 16 16 15 15 15 15 15 15 15 15 15 15 15 14 14 14 13 12 12 14 15 16 17 18 18 17 16 16 15 15 15 15 15 15 14 13 13 13 12 13 13 13 13 13 13 13 13 12 12 12 12 11 11 11
14 14 14 14 14 13 14 15 15 14 14 14 13 13 14 14 14 14 14 14 14 14 14 14 13 13 13 13 14 13 14 15 15 15 15 14 14 14 15 15 15 14 14 13 13 13 13 13 12 11 11 12 14 15 16 17 17 17 17 16 16 15 15 14 13 13 12 12 13 13 12 12 13 13 13 13 13 13 12 12 12 12 12 11 11 11
13 13 13 13 12 12 14 15 14 13 13 13 12 12 13 14 14 14 14 14 14 14 14 14 13 14 13 13 13 12 13 14 14 13 14 14 14 14 14 15 14 14 13 13 13 13 13 12 12 11 11 11 12 13 14 15 16 17 17 17 16 16 15 15 13 12 12 12 12 13 13 13 13 13 13 13 13 12 12 12 12 12 11 11 11 11
13 13 12 12 11 11 13 14 13 13 12 12 13 14 14 15 14 14 14 14 13 14 14 13 13 13 12 12 13 13 12 13 13 13 13 13 14 14 14 13 13 13 13 13 13 13 12 12 11 11 11 11 11 12 12 13 14 15 16 16 16 15 15 14 14 13 12 12 12 13 13 13 13 13 13 13 12 12 12 12 12 12 11 11 11 10
13 12 12 12 11 11 12 13 13 11 11 12 14 15 15 15 14 14 14 14 13 13 13 13 13 12 11 12 12 12 11 12 12 12 13 13 13 13 13 12 12 13 13 12 13 13 11 10 10 11 11 11 12 12 12 12 13 13 15 16 16 15 14 13 13 12 12 12 13 13 13 13 13 13 13 12 12 12 12 12 12 12 11 11 10 10
12 11 11 12 11 11 12 12 11 10 11 13 14 14 14 14 14 14 13 12 12 12 12 12 12 11 11 11 11 11 11 11 11 12 13 13 12 12 12 12 12 12 12 12 13 12 10 9 10 11 11 11 12 12 12 12 12 12 13 14 14 14 13 13 12 12 12 12 12 12 12 12 12 12 12 12 12 12 12 12 12 11 11 10 10 10
11 11 11 11 11 11 11 10 10 10 12 13 13 14 14 14 13 13 13 12 11 12 12 12 11 11 11 11 11 10 10 10 11 12 13 13 12 12 11 11 11 11 12 12 11 11 10 10 11 11 11 11 11 11 11 12 12 11 12 13 13 13 13 12 12 11 11 11 11 11 12 12 12 12 12 12 12 12 12 12 11 11 10 10 9 9
11 11 11 11 11 11 10 10 10 11 11 12 13 14 14 14 14 14 13 12 10 11 12 11 11 11 11 11 10 10 10 10 11 11 12 12 12 11 11 11 10 11 11 11 11 10 10 11 11 10 11 11 11 11 11 11 11 11 11 12 12 12 12 12 11 11 11 11 11 11 12 12 12 11 11 12 12 12 11 11 11 10 10 9 9 8
12 11 11 10 10 10 10 10 9 10 10 11 12 12 12 13 14 14 13 12 10 10 11 11 11 11 11 11 11 10 11 11 11 11 11 11 11 11 10 10 9 10 10 10 10 10 10 11 10 10 10 10 10 10 10 11 11 11 11 11 12 12 11 11 11 11 11 11 11 12 12 12 11 11 11 11 11 11 10 10 10 10 9 9 9 8
12 11 11 10 10 10 10 9 9 10 10 9 10 10 9 10 12 13 12 11 10 11 11 11 12 12 12 11 11 11 11 10 10 10 11 11 11 10 10 10 9 9 10 10 10 10 10 10 10 10 10 9 9 10 10 10 11 10 10 11 11 11 11 11 10 11 11 11 11 11 12 11 11 11 10 10 10 10 10 10 10 9 9 9 9 8
12 11 10 10 10 10 10 9 9 10 10 8 8 9 9 9 11 11 10 9 10 11 11 11 12 12 12 11 11 10 10 10 10 11 11 10 10 9 9 10 9 9 9 10 10 10 10 9 9 9 9 9 9 10 10 10 10 10 10 11 11 11 11 11 11 11 11 11 11 11 11 11 10 10 10 10 10 10 10 10 9 9 9 9 9 9
11 11 10 10 9 9 9 9 9 9 9 8 9 9 9 10 10 9 9 10 11 11 11 11 11 12 11 11 11 11 11 11 11 10 10 9 9 9 8 9 9 9 9 9 9 9 9 9 9 9 8 9 9 9 9 10 10 10 10 10 11 11 11 11 10 10 10 10 10 11 10 10 10 10 10 10 10 10 10 10 9 9 9 9 9 8
9 10 10 10 10 9 9 9 9 8 8 9 9 9 9 9 9 9 10 11 11 11 11 11 11 11 11 11 11 11 11 11 10 9 9 8 9 9 8 8 8 8 8 8 8 8 8 8 8 8 8 9 9 9 9 9 9 9 10 10 10 11 11 10 9 9 10 10 10 10 10 10 10 11 11 11 10 10 10 10 9 9 9 9 8 8
9 9 9 9 9 9 9 9 8 8 9 9 9 9 9 9 9 10 11 11 11 11 11 11 11 12 11 11 11 10 10 10 9 9 9 9 8 8 7 7 7 7 7 8 8 8 8 8 8 8 8 9 9 9 9 9 9 9 9 9 9 9 10 9 8 9 9 9 9 9 10 11 11 11 11 10 10 10 10 10 9 9 9 8 8 7
9 8 7 8 8 8 8 8 8 8 9 9 9 9 10 10 10 10 10 10 10 11 10 11 11 11 11 10 10 10 9 9 9 9 8 8 8 8 7 6 6 7 7 7 7 8 8 7 7 8 8 8 9 9 9 8 8 7 7 7 7 8 8 8 9 9 9 9 10 10 11 11 11 10 10 10 10 10 10 10 9 9 9 8 8 8
9 8 8 8 8 8 8 8 9 9 10 9 9 10 10 10 10 10 9 9 10 10 10 10 10 10 10 9 9 9 9 8 8 8 8 8 8 7 6 6 6 6 7 7 7 8 8 7 7 8 8 8 8 9 8 8 7 6 6 6 7 7 7 8 9 9 9 9 10 11 11 11 11 10 10 10 10 10 10 9 9 9 8 8 8 7
8 8 8 8 8 8 8 9 9 9 9 9 9 10 10 10 10 10 10 10 10 10 10 9 9 9 9 8 8 8 8 8 8 8 7 7 7 6 6 6 6 6 7 7 7 7 7 7 7 8 8 8 8 9 8 7 7 7 6 7 7 7 7 8 8 8 9 10 11 11 11 10 10 10 10 10 10 10 9 9 9 9 8 8 7 7
8 8 7 7 7 7 8 8 9 9 9 9 9 9 9 10 10 10 9 9 10 10 10 9 8 8 8 8 8 8 8 8 8 7 7 7 7 7 6 5 6 6 7 7 7 7 7 7 7 7 8 8 8 8 8 7 7 7 7 7 7 7 8 8 9 9 10 11 11 11 11 10 10 10 10 10 10 9 9 9 9 8 8 8 7 6
7 7 7 7 7 7 7 8 8 8 8 9 9 9 9 9 9 9 9 9 9 9 9 8 8 8 8 8 8 8 8 7 7 7 7 7 7 6 6 5 6 6 7 7 7 7 7 7 7 7 7 8 8 8 7 7 7 8 8 7 8 8 9 10 10 10 10 11 11 11 11 11 10 10 10 10 9 9 9 9 8 8 8 8 7 6
7 7 6 7 7 6 7 7 8 8 8 9 9 9 9 9 9 9 9 9 9 9 9 8 7 7 8 8 7 7 7 7 7 7 7 7 6 6 5 5 6 6 6 7 7 7 7 7 7 7 7 8 8 7 7 7 7 7 7 8 8 9 10 10 11 11 11 11 11 11 11 11 11 10 10 9 9 9 8 8 8 8 8 7 7 6
6 6 6 6 6 5 6 7 8 7 7 8 9 9 9 10 9 9 9 9 9 9 9 9 8 7 6 6 6 6 7 7 7 7 7 7 6 5 5 5 6 6 6 7 7 7 7 7 7 7 7 8 8 7 7 7 7 7 8 8 9 10 10 10 11 11 11 11 11 11 11 11 10 10 9 9 9 9 8 8 8 7 7 7 7 6
6 6 7 6 6 6 7 7 8 7 7 8 8 8 9 9 9 9 9 9 9 9 8 8 8 7 7 6 6 6 7 8 7 6 6 6 5 4 5 5 6 6 6 6 7 7 7 7 7 8 8 8 7 7 7 7 7 8 9 9 10 10 11 11 11 11 11 11 11 11 11 10 10 9 9 9 9 8 8 8 8 7 7 7 7 6
Height
769 777 782 781 779 776 773 775 776 775 777 779 780 782 784 786 782 773 769 763 757 763 772 771 768 769 769 766 762 762 762 760 761 766 770 770 770 771 772 773 774 775 774 775 778 780 781 783 784 787 790 793 796 798 799 800 802 803 804 805 807 809 811 813 814 816 816 817 817 818 818 818 818 819 819 820 820 821 820 820 820 820 821 821 821 821
771 782 783 774 772 771 771 773 774 775 776 776 779 781 782 784 782 773 769 765 758 764 775 774 772 773 770 768 766 763 763 763 762 765 768 768 768 768 769 770 772 772 774 777 780 782 783 784 785 786 789 791 793 795 797 799 801 803 804 804 805 807 809 812 814 815 816 816 817 817 818 818 819 819 819 820 820 821 821 820 820 820 820 821 821 821
780 784 775 767 770 772 773 773 772 773 775 778 780 782 783 783 780 774 768 765 762 766 775 775 775 774 769 768 770 767 763 761 760 761 764 765 766 767 767 769 770 773 776 778 780 782 783 783 784 786 787 789 791 793 796 798 799 802 803 805 806 807 808 810 813 815 816 816 817 817 818 818 819 819 820 820 820 821 821 821 821 820 820 820 821 821
786 778 765 765 771 772 773 774 771 773 776 779 780 783 785 782 783 782 773 766 765 769 775 775 775 775 769 766 766 765 764 761 759 759 760 763 764 763 763 764 767 771 775 777 779 781 782 783 784 785 786 788 791 793 795 797 798 800 802 804 805 806 808 809 812 814 815 816 817 817 818 818 819 819 820 820 820 821 821 821 821 820 820 820 820 820
782 769 760 766 771 769 772 775 773 775 779 780 778 781 783 779 780 782 776 770 769 771 771 772 781 779 770 769 766 762 764 764 761 760 759 760 761 761 761 762 764 767 770 773 777 779 781 782 782 782 784 786 789 791 793 794 796 798 800 803 804 806 807 809 811 813 814 815 816 817 818 819 819 819 820 820 820 820 821 821 821 821 820 819 819 820
776 765 762 768 769 766 770 773 772 774 780 782 777 774 775 775 777 779 778 778 782 783 773 774 793 791 775 774 772 765 766 764 762 763 760 756 758 761 762 762 764 765 766 768 771 775 777 778 779 781 783 786 787 789 790 792 794 796 799 802 804 805 807 808 810 812 813 814 815 816 817 818 818 819 819 819 820 820 821 821 821 821 820 820 819 820
769 762 762 767 768 768 770 772 770 771 779 784 775 768 769 772 776 780 781 786 791 792 781 778 793 797 785 776 769 765 766 763 762 764 760 755 756 758 759 758 760 763 765 766 768 771 773 775 778 781 783 784 785 787 789 791 793 795 798 800 803 804 806 807 808 811 812 813 815 815 816 817 817 818 818 819 820 820 820 821 821 821 820 820 820 820
766 764 765 766 767 771 774 773 770 769 778 781 769 763 768 771 775 778 780 786 788 786 785 782 786 795 793 779 769 767 768 765 762 762 759 755 755 755 754 754 756 760 762 765 768 770 771 772 774 777 779 781 783 785 788 790 792 794 796 799 801 803 805 806 807 809 811 812 814 815 816 816 817 817 818 819 819 820 820 821 821 821 821 820 820 820
766 767 766 764 766 771 771 767 766 767 774 772 763 762 766 769 773 773 775 782 784 786 791 786 784 795 795 779 771 772 771 768 761 756 754 753 752 752 752 752 753 756 758 760 764 766 767 768 769 772 775 778 781 784 786 787 789 792 794 797 799 802 803 804 806 808 810 811 813 814 815 816 817 818 818 818 819 819 820 820 821 821 821 821 821 821
764 762 759 760 764 767 764 761 761 765 769 764 761 764 765 768 772 772 775 778 783 793 795 787 785 796 795 778 772 774 771 766 759 753 751 749 748 748 749 750 750 753 756 757 759 761 762 764 766 769 773 777 780 782 784 786 789 790 792 795 797 799 801 802 804 806 808 810 812 813 814 815 816 817 818 818 819 819 819 820 820 821 821 821 821 821
760 755 755 758 759 759 758 757 759 761 762 761 764 768 769 772 772 774 778 779 790 800 792 785 786 794 797 783 771 771 765 759 758 754 748 746 746 744 745 747 747 749 753 755 757 758 759 762 766 770 774 777 779 782 785 787 788 789 791 793 795 796 799 800 802 804 807 809 810 811 813 814 815 816 817 817 818 818 819 819 820 820 821 822 822 822
761 758 758 754 751 753 755 757 759 758 759 763 769 772 777 783 780 782 786 787 800 804 787 783 789 795 801 786 768 765 758 755 759 754 744 742 744 744 743 744 744 744 748 752 755 757 759 763 768 772 774 776 779 781 783 785 786 787 789 791 792 794 796 797 799 802 804 806 808 810 811 812 813 814 815 816 817 817 818 818 819 820 821 821 822 822
763 760 759 754 749 751 757 762 763 760 760 767 772 776 787 797 798 799 799 798 804 800 784 782 788 794 796 779 763 761 756 753 756 752 744 741 741 742 742 742 741 741 744 749 754 756 759 763 766 769 772 774 776 777 778 781 782 784 786 788 790 791 793 794 796 799 802 804 806 807 809 810 812 813 814 815 815 816 817 818 819 819 820 820 821 821
770 764 758 758 755 750 755 765 769 766 764 768 773 779 789 801 810 813 810 809 808 795 783 782 786 791 788 771 760 759 756 752 751 749 745 741 741 740 739 740 740 740 742 746 750 754 756 759 762 764 767 769 771 771 773 775 778 781 783 785 787 788 789 791 793 796 799 801 803 805 807 809 810 811 812 813 814 815 816 817 818 818 819 819 820 821
781 778 763 760 760 753 753 758 762 762 763 766 768 774 783 791 801 807 806 805 802 793 787 787 787 788 782 766 756 755 755 752 749 748 745 743 743 741 739 741 741 741 743 744 748 751 753 755 757 760 762 764 765 767 769 772 775 778 780 782 784 786 787 788 790 792 795 798 801 803 805 807 808 810 811 812 813 814 815 816 817 818 818 819 820 820
782 779 762 757 755 752 757 756 753 759 766 768 767 774 780 777 781 793 797 795 795 795 793 789 784 780 772 761 754 755 755 752 751 750 748 747 747 745 745 747 747 746 746 746 747 749 750 751 754 756 758 760 761 764 767 770 773 774 776 779 781 783 785 786 788 790 792 795 798 801 803 805 806 808 809 810 812 813 814 815 816 817 818 819 819 820
781 776 761 757 755 752 758 757 753 760 767 769 771 773 771 765 769 784 794 795 797 800 796 790 783 775 771 765 758 758 759 758 759 758 757 757 755 754 755 753 753 752 751 750 750 750 750 751 753 754 755 757 760 763 765 767 768 770 773 776 779 781 783 784 786 788 790 793 796 799 801 803 804 805 807 808 809 811 812 814 815 816 817 818 819 819
776 776 765 760 761 757 755 755 752 754 759 768 774 768 763 767 772 782 794 798 803 805 798 792 785 778 778 775 765 762 766 767 767 764 763 762 761 762 762 758 757 757 755 754 753 754 753 752 752 753 754 755 757 759 761 763 765 768 771 773 776 778 780 782 784 786 788 791 793 796 798 800 802 803 804 806 807 809 811 812 813 814 816 817 818 818
770 776 772 763 764 760 754 755 759 758 757 765 769 763 767 779 783 788 796 798 803 807 800 794 791 785 781 778 771 768 771 772 771 768 766 766 765 766 765 762 761 762 762 760 757 755 756 756 755 754 753 754 756 758 759 762 765 768 770 772 774 775 777 779 782 784 787 789 791 793 795 797 799 800 802 804 805 807 808 810 811 813 814 815 816 817
768 777 778 766 763 763 759 762 773 774 766 764 767 767 771 777 782 786 790 790 795 803 802 798 797 787 777 774 772 770 771 773 773 772 770 770 768 767 766 765 764 764 766 766 762 757 755 756 758 758 757 756 756 757 759 762 765 767 769 771 772 774 776 778 780 782 784 786 788 790 792 794 796 798 800 802 803 805 806 808 809 811 812 814 815 816
768 776 781 772 765 767 769 772 778 781 778 775 776 778 777 777 780 782 785 786 788 795 801 803 799 785 773 770 767 767 770 772 772 773 772 771 770 769 768 766 765 765 765 765 763 760 757 755 756 759 762 762 761 760 761 762 764 766 768 770 771 773 775 776 778 780 781 783 785 788 789 791 793 795 798 800 801 803 804 806 808 809 811 812 813 815
772 778 782 779 775 773 774 772 771 774 777 779 780 780 779 780 783 788 791 789 786 789 794 798 796 782 769 765 763 765 771 771 769 771 772 772 771 769 769 767 766 766 764 763 763 762 760 757 756 757 759 763 765 765 765 765 765 766 767 769 770 771 772 774 775 777 779 781 783 784 786 788 791 793 796 798 799 801 802 804 806 808 809 810 812 813
772 778 782 784 781 778 775 769 767 769 769 772 776 776 777 781 784 790 794 789 787 789 789 793 793 777 764 763 762 765 770 770 769 768 768 771 770 768 768 767 767 766 764 764 764 764 764 761 759 758 758 760 762 764 765 765 766 766 767 768 769 770 771 771 772 774 776 778 779 781 783 786 789 791 793 796 797 799 800 802 804 806 807 809 810 812
771 778 783 784 783 780 775 767 765 767 766 771 778 777 778 783 784 786 789 787 787 787 788 795 793 776 766 766 765 768 771 769 769 768 766 768 768 769 769 767 767 766 764 764 764 764 764 762 761 759 759 760 761 763 765 764 765 766 766 767 768 768 768 769 770 772 774 775 776 778 781 783 786 788 791 793 795 797 799 801 803 804 806 808 809 811
772 780 784 788 791 788 785 779 774 772 773 778 782 780 780 783 783 784 785 786 787 785 784 790 787 774 769 770 768 769 771 768 768 767 765 766 767 768 768 767 767 767 766 766 765 763 764 764 764 762 761 761 761 761 762 763 764 764 764 765 765 766 768 769 770 770 771 772 773 775 777 780 783 785 788 791 793 795 797 799 801 803 805 806 808 809
773 780 782 788 796 798 798 794 787 782 781 783 782 781 782 784 783 783 785 789 790 788 784 784 781 773 769 770 768 768 768 766 765 765 765 766 766 765 766 766 768 768 767 767 766 765 765 766 766 765 764 763 762 761 761 761 762 763 763 763 764 765 767 770 771 770 769 770 771 772 774 776 779 782 785 788 791 793 795 797 800 802 803 805 806 808
776 782 780 782 788 792 792 789 784 783 785 784 782 781 783 785 783 783 789 792 789 788 787 783 779 774 770 773 773 769 768 767 765 765 766 765 764 765 765 766 766 767 767 767 766 766 766 766 766 766 765 765 763 763 762 761 761 760 760 760 761 761 762 765 768 768 767 769 769 769 770 771 774 778 781 785 788 791 794 796 798 800 802 804 805 806
780 784 782 782 782 783 785 783 780 782 784 783 783 780 781 786 785 784 788 789 787 791 790 781 779 778 774 776 778 772 769 769 766 765 765 763 764 766 767 767 766 766 766 766 766 766 766 766 766 764 764 764 762 761 761 760 760 759 758 757 757 757 757 759 762 764 765 766 766 767 767 768 771 774 778 783 787 790 792 794 796 799 801 802 803 805
784 785 783 784 784 782 784 783 781 782 783 782 781 780 780 784 786 784 785 784 786 790 786 779 782 781 774 777 779 772 769 768 766 765 765 765 766 767 767 767 767 767 766 766 766 766 766 767 766 765 764 762 761 759 758 757 757 757 758 757 757 756 755 755 757 758 761 763 764 764 764 766 769 773 777 781 784 788 790 793 795 797 799 801 802 803
785 786 783 784 785 784 783 782 780 782 782 779 778 780 782 783 782 782 783 783 784 784 780 780 784 782 777 777 777 773 770 769 768 768 768 769 768 768 767 768 768 768 767 767 768 768 767 767 766 766 765 764 762 760 759 758 757 756 756 757 758 758 757 757 756 756 757 759 762 765 767 769 770 773 777 780 783 786 789 791 794 796 797 799 800 802
786 788 786 785 787 788 783 779 779 781 782 781 781 782 782 781 781 782 781 780 781 781 779 780 782 780 778 777 776 776 775 771 770 771 771 772 771 770 770 769 769 769 769 769 769 768 768 767 766 766 765 765 764 763 761 760 758 757 756 755 755 755 756 757 759 760 759 758 759 762 768 773 774 776 778 781 783 785 787 790 792 794 796 797 799 800
789 792 789 788 794 794 784 780 782 783 781 780 783 785 782 778 777 777 777 778 778 777 776 779 780 777 778 778 777 778 777 773 773 774 773 773 772 771 771 770 770 771 771 770 769 768 767 767 766 765 763 763 763 763 762 761 759 758 757 755 754 753 752 752 756 761 763 763 761 760 764 770 773 775 778 781 783 785 786 788 791 792 795 796 798 799
790 791 791 793 798 795 786 783 784 786 786 781 777 775 773 772 774 775 776 777 777 776 777 778 777 776 780 779 775 776 778 776 776 775 774 773 771 770 771 771 772 772 771 770 769 768 767 767 766 765 763 761 761 761 760 759 758 756 755 754 753 752 750 749 750 753 758 762 763 761 763 767 769 772 776 779 783 784 785 787 788 791 793 795 796 797
789 790 792 793 795 794 787 782 786 795 794 782 770 766 767 769 772 775 775 775 776 777 777 777 777 779 781 780 776 777 779 779 778 776 774 773 771 772 773 773 773 772 771 770 769 767 767 766 765 764 763 761 759 758 757 756 755 754 753 752 750 749 748 748 748 749 752 755 758 759 762 764 766 768 772 776 781 783 784 785 786 789 791 793 795 796
790 793 793 790 793 796 790 788 799 802 787 771 767 766 766 768 769 771 775 777 776 776 776 778 780 780 780 779 779 779 778 778 778 776 773 772 773 774 774 774 773 772 771 769 768 766 765 764 763 762 761 759 757 755 754 752 750 750 750 748 747 746 745 745 745 746 747 750 753 756 759 762 765 767 769 773 778 781 782 783 785 787 790 792 794 794
789 793 793 789 791 795 795 798 801 790 773 767 769 766 763 767 769 770 773 777 777 774 774 778 781 781 781 781 780 779 779 778 778 775 772 772 773 774 774 774 773 771 770 768 766 765 764 763 762 761 759 757 755 753 751 749 748 747 746 745 744 742 742 742 742 743 744 747 750 754 758 763 767 770 771 773 777 780 781 782 783 786 789 791 792 792
784 788 790 791 790 790 793 797 793 783 776 772 767 764 763 763 764 767 769 775 780 778 775 777 779 780 779 778 778 778 777 774 774 774 773 772 772 772 772 772 771 769 767 766 764 763 762 761 760 758 757 755 753 751 749 747 745 743 741 741 740 739 739 739 739 739 741 744 747 750 755 761 766 772 774 775 777 780 781 782 783 785 787 788 789 790
778 781 785 789 790 788 792 797 796 793 787 776 769 769 769 765 762 764 768 774 779 780 777 776 776 776 775 774 774 775 773 771 772 773 773 771 771 770 770 768 767 766 765 763 762 760 759 758 757 755 753 751 748 747 746 744 742 739 737 736 736 736 736 736 736 736 737 739 743 747 751 757 764 770 774 776 778 780 782 783 784 784 785 786 787 788
772 776 781 786 788 788 792 797 797 791 785 784 782 780 779 777 769 766 772 778 778 777 777 775 774 774 773 773 774 774 775 777 775 772 770 770 769 768 768 766 764 763 762 760 760 758 756 754 753 751 749 747 744 743 742 741 738 735 732 731 731 732 732 732 732 733 734 736 740 744 749 755 762 768 772 775 777 779 781 782 783 783 784 784 785 786
772 776 784 789 789 788 789 792 791 786 784 789 788 783 783 782 773 773 784 786 778 776 776 774 773 773 773 773 775 775 775 776 772 767 766 768 767 766 766 763 761 760 759 757 757 755 753 751 749 747 745 743 741 739 738 736 733 730 727 726 726 727 728 728 729 730 732 735 739 744 748 754 761 766 770 773 775 778 780 781 781 782 782 783 783 784
780 780 783 787 788 788 790 792 790 788 789 790 787 784 784 782 780 787 790 782 775 775 775 773 773 773 772 773 773 772 771 770 767 764 764 765 765 763 762 761 759 758 756 755 754 752 751 748 746 744 742 740 738 736 734 731 727 724 722 721 721 722 723 726 728 728 729 734 740 746 750 755 760 764 767 770 774 777 779 779 779 779 780 781 781 782
792 788 786 786 786 788 791 792 792 792 792 788 787 787 786 785 787 788 782 774 773 774 773 772 772 771 771 771 770 769 767 766 765 764 763 763 763 761 760 758 757 756 754 753 752 750 748 746 744 742 740 738 736 734 731 727 722 719 717 717 717 717 720 726 728 728 730 736 743 749 755 758 761 763 765 768 772 775 777 777 777 777 778 779 780 780
795 795 795 792 791 792 792 791 794 797 792 786 787 787 785 785 785 781 776 775 774 772 771 772 771 769 769 769 767 767 767 766 766 765 763 761 761 760 759 757 757 755 753 751 750 748 746 744 742 740 738 736 735 732 729 724 719 716 715 715 715 714 717 724 728 729 733 741 748 754 759 760 761 762 764 767 771 773 774 775 775 776 777 778 779 779
795 800 805 800 796 798 798 794 793 793 788 785 787 786 783 782 781 779 779 778 775 773 773 772 770 769 769 768 767 768 767 766 766 765 763 761 759 758 758 756 755 754 752 750 747 745 744 742 740 739 737 734 733 731 727 723 718 717 718 718 718 716 718 724 729 732 738 746 752 756 759 759 760 762 764 767 770 772 773 773 774 775 776 776 778 778
797 800 804 801 795 794 795 792 788 787 785 785 785 783 781 781 780 779 779 777 775 774 773 771 770 769 769 769 768 767 766 766 764 763 762 759 757 757 756 754 753 752 749 747 745 743 742 740 738 737 735 733 731 730 727 723 720 719 720 721 722 722 723 726 730 736 744 750 753 755 756 757 759 761 764 767 769 770 771 772 773 774 775 776 777 777
798 797 799 798 794 791 789 786 785 784 784 783 783 781 779 779 777 776 776 775 773 772 770 770 770 768 767 768 767 765 764 763 761 760 758 757 755 754 753 751 750 749 746 744 743 741 739 738 736 735 733 732 730 729 728 727 724 723 724 724 724 726 728 730 735 742 748 751 751 753 755 757 759 762 764 767 769 770 771 772 772 773 774 775 776 776
797 798 799 797 796 796 791 785 783 783 782 781 781 780 778 776 775 774 773 772 770 769 768 768 767 766 765 765 764 762 760 759 758 756 755 754 753 751 750 749 747 745 744 742 740 738 737 735 733 732 732 730 729 728 729 730 728 727 728 728 727 728 731 735 740 745 748 749 750 752 754 757 759 762 764 767 768 769 771 771 772 773 773 774 774 774
799 799 799 795 794 794 790 785 783 783 781 779 779 777 775 774 773 771 771 770 768 767 766 765 764 763 762 760 760 759 757 755 755 753 751 751 751 749 748 747 744 743 742 740 738 736 734 732 731 730 730 729 728 728 729 731 731 731 732 733 732 733 736 739 742 744 746 748 750 752 754 756 759 762 764 767 768 770 771 772 772 773 773 772 772 771
801 801 798 794 793 792 789 784 782 780 777 775 775 774 772 770 769 768 767 766 765 765 763 761 760 760 759 758 757 757 755 753 752 750 750 749 748 747 746 744 742 742 740 738 736 734 732 730 730 729 728 728 728 728 730 733 734 734 734 735 735 736 737 739 741 743 745 748 750 751 753 756 759 762 765 767 769 770 771 771 772 772 771 771 770 769
802 801 796 795 798 796 790 784 782 782 779 774 772 771 769 768 767 766 764 763 762 762 760 759 758 757 756 756 755 755 754 751 749 749 748 747 746 746 744 742 741 740 738 736 735 732 729 729 729 728 727 727 728 730 733 735 735 736 736 737 737 736 737 738 740 742 745 747 749 751 753 756 760 763 766 768 769 770 770 771 771 770 769 768 768 767
798 795 792 793 796 793 786 782 780 781 779 773 770 769 768 767 766 764 762 761 760 759 758 757 756 755 754 753 752 752 751 749 747 747 747 746 745 744 742 740 740 738 736 734 732 730 728 728 728 727 727 727 727 730 733 736 737 738 739 739 739 738 737 738 740 742 745 747 749 751 754 758 761 764 767 768 769 769 770 770 769 768 767 766 766 765
Wind_Speed
2 1 2 4 6 7 7 7 8 5 6 4 1 2 2 1 3 5 4 8 1 5 0 2 4 6 6 6 6 6 4 1 6 8 10 11 11 11 11 12 13 13 13 16 23 27 29 33 33 31 32 31 29 27 27 27 25 26 26 24 24 24 22 19 16 14 13 14 16 15 12 10 9 6 5 6 6 4 3 2 2 2 3 4 4 4
3 2 6 8 10 9 6 4 6 4 4 4 3 1 3 0 3 6 3 7 4 5 3 4 3 6 6 5 7 5 2 4 6 6 9 12 12 10 12 14 13 12 9 12 16 20 24 28 29 30 32 33 32 31 30 29 28 28 26 24 25 25 23 20 16 14 15 16 16 15 13 11 9 6 5 6 6 4 3 3 2 3 3 4 4 4
2 3 10 11 8 5 2 2 5 4 5 4 3 1 4 2 2 6 5 7 5 4 2 3 4 5 7 5 5 4 4 6 7 7 7 10 12 10 11 13 12 10 8 9 11 15 22 27 28 29 31 34 34 34 33 31 30 29 26 25 25 25 24 20 16 16 16 16 15 14 13 13 10 7 6 7 6 6 6 5 3 2 2 2 3 3
1 6 11 9 5 5 3 1 5 4 3 3 3 2 3 3 1 2 5 7 5 2 2 2 4 5 6 6 4 5 6 5 6 7 6 7 11 12 13 13 13 12 10 11 12 13 19 24 25 27 30 32 32 32 33 32 32 30 28 26 25 24 23 20 17 16 16 16 15 13 12 12 11 9 7 7 6 5 5 5 3 0 2 2 3 4
6 10 7 3 6 8 5 2 4 5 1 2 2 4 3 5 2 4 4 5 6 5 1 4 6 5 4 4 6 4 1 2 5 6 7 7 9 9 9 10 11 12 13 15 14 12 15 20 24 28 30 30 31 32 33 34 34 32 30 28 25 24 22 19 17 18 19 18 16 15 13 12 11 11 9 8 8 6 4 4 2 0 1 3 2 4
9 10 3 2 6 8 7 5 4 5 1 4 3 6 6 6 5 3 1 4 5 5 4 2 2 5 5 3 6 6 4 4 4 5 10 11 7 6 6 8 10 10 12 15 17 15 16 21 25 26 27 28 30 33 35 36 35 34 32 29 25 24 21 19 19 21 22 20 18 16 15 14 14 14 12 11 10 8 7 5 3 3 4 7 7 5
5 5 3 5 6 7 5 4 4 5 4 2 4 7 6 5 4 2 1 3 2 2 4 2 3 4 6 4 7 6 5 8 6 5 11 12 6 7 8 10 10 9 10 12 15 16 17 21 22 21 25 29 31 34 36 36 35 34 32 30 26 24 22 20 21 23 22 20 18 16 16 16 16 16 14 12 9 8 8 6 4 4 5 7 8 7
4 3 2 5 4 4 2 2 4 5 7 3 6 6 4 3 3 2 4 4 3 3 4 4 3 3 4 5 7 5 5 8 9 7 9 10 8 9 10 11 10 10 11 12 13 15 17 21 23 24 28 32 33 34 34 35 35 34 33 31 28 25 24 22 22 23 21 19 17 17 17 18 17 16 14 12 10 9 8 7 6 5 4 5 6 6
3 2 4 6 4 3 3 5 6 6 4 6 7 5 4 4 5 4 5 3 1 2 4 6 1 1 5 5 5 3 3 7 10 10 9 10 10 10 10 10 9 10 12 14 16 17 18 22 27 30 32 33 33 34 36 37 36 34 34 33 29 27 26 24 23 22 20 19 18 17 19 19 18 16 14 13 12 11 10 8 8 7 5 4 3 4
4 5 6 6 5 4 5 6 6 7 4 6 4 3 1 3 3 3 5 3 3 4 3 7 1 0 5 6 4 2 3 6 8 9 9 10 11 11 10 10 9 8 9 12 16 17 20 26 30 31 31 32 33 34 36 36 34 34 34 33 32 30 28 27 25 23 21 19 19 19 20 20 19 17 16 15 13 12 10 9 9 8 6 5 3 2
5 4 3 4 4 6 6 5 5 7 6 2 3 2 4 5 4 3 3 4 4 2 6 7 3 3 3 5 5 3 4 5 6 8 9 8 10 11 10 9 10 8 8 10 13 15 22 28 29 28 29 31 32 32 32 31 32 34 34 34 34 32 31 29 26 25 23 21 20 21 21 20 20 20 19 18 15 13 12 10 10 8 8 8 6 4
5 2 2 3 4 5 4 3 2 1 2 4 3 2 2 4 5 5 4 4 2 4 7 5 3 5 2 5 6 5 6 6 5 8 11 7 9 10 9 9 10 9 8 10 11 13 16 19 20 23 26 28 30 30 30 32 33 34 35 35 35 34 33 31 28 27 26 24 23 23 22 20 21 22 22 20 17 16 14 12 11 9 10 9 8 8
4 3 3 4 3 4 4 2 4 5 4 6 4 4 4 2 4 3 4 2 1 5 6 3 2 4 4 8 8 8 8 8 6 7 10 7 8 9 9 10 10 9 8 9 10 11 12 12 15 21 25 27 30 32 34 35 35 35 36 36 36 35 35 33 31 29 28 27 25 24 23 23 21 22 23 21 19 17 16 15 13 11 12 11 10 11
4 5 4 3 3 2 6 3 2 3 2 4 4 3 4 2 2 1 4 2 2 5 6 4 2 2 4 5 7 7 8 8 8 7 7 6 6 8 9 8 8 9 8 8 9 11 12 12 17 23 27 29 32 36 37 37 37 36 36 37 37 37 37 35 33 32 30 29 27 26 25 25 23 22 23 22 20 19 18 18 15 14 13 12 12 12
1 5 3 1 2 2 4 5 6 4 2 4 5 5 4 4 3 3 3 3 4 4 4 3 2 3 2 4 6 4 5 6 5 6 7 6 4 3 4 2 4 7 7 8 9 11 13 16 21 26 28 32 35 37 37 36 37 37 36 38 37 36 37 37 35 34 33 30 28 27 26 26 25 23 23 23 21 19 20 20 17 15 15 14 13 12
3 4 6 3 2 1 0 3 2 5 0 3 3 5 2 4 5 3 3 5 4 1 3 2 2 4 4 5 7 5 7 10 11 11 11 11 9 8 8 7 2 1 2 5 8 11 13 18 24 27 29 32 34 34 35 35 36 37 38 38 38 37 37 37 37 36 34 32 29 28 27 27 26 24 24 24 22 21 21 20 19 17 16 15 14 13
3 4 6 3 2 3 3 5 2 3 3 2 2 3 3 3 6 3 2 0 3 1 4 1 2 5 3 5 6 8 9 11 12 11 11 11 12 12 10 9 9 7 5 1 2 6 10 15 21 25 28 31 30 31 34 36 38 40 39 38 37 36 36 37 37 36 35 33 31 29 28 27 27 26 25 25 23 22 21 21 20 18 17 17 16 15
4 2 6 3 3 2 1 3 4 1 2 2 1 5 3 2 4 2 1 3 3 2 4 2 3 5 2 3 5 9 10 9 10 10 11 12 13 11 9 10 11 10 9 8 5 2 6 10 18 23 27 29 32 34 37 38 40 40 40 40 39 36 36 37 37 37 36 34 32 31 30 29 28 28 27 26 25 23 22 22 21 19 19 19 19 17
3 0 6 2 2 5 3 4 4 5 5 4 1 3 0 1 1 1 1 1 1 2 4 4 4 3 2 3 2 7 7 7 9 10 11 11 11 10 9 10 12 11 9 8 7 5 2 4 11 19 25 28 29 31 34 36 37 37 38 39 40 39 38 37 37 37 36 35 33 32 30 30 30 29 28 26 25 23 23 23 22 20 20 20 19 17
3 2 5 4 1 3 5 4 1 5 6 4 3 3 2 2 3 3 2 3 3 3 2 3 4 3 4 5 3 5 4 6 7 8 8 8 9 9 8 9 10 9 7 5 6 6 5 3 5 10 15 22 27 30 31 33 34 36 36 37 38 38 36 36 36 37 36 35 34 33 32 32 31 30 29 27 25 25 24 23 22 21 20 19 17 16
3 3 3 5 4 2 3 0 3 1 3 4 4 5 4 2 0 0 1 2 4 3 3 1 3 4 5 4 6 7 6 6 7 7 6 6 7 7 7 8 9 8 7 6 6 7 6 5 3 5 9 10 15 21 26 30 32 32 33 34 36 35 33 34 36 37 37 36 35 34 34 33 32 30 29 27 26 25 24 23 23 22 20 18 16 14
1 1 2 2 3 1 4 4 2 1 2 2 2 3 3 3 1 1 3 2 2 3 4 4 3 6 6 3 5 7 7 6 6 7 6 4 5 6 6 7 7 7 8 7 7 7 7 8 6 2 5 6 8 13 18 24 27 28 30 33 34 35 35 36 37 38 38 37 36 36 35 34 32 31 29 28 26 25 25 24 23 21 20 17 15 13
3 3 2 1 3 4 6 7 4 3 3 3 2 2 1 0 2 3 3 4 0 1 2 3 2 6 5 2 6 6 6 6 6 6 6 4 4 4 5 6 7 8 7 7 7 6 5 10 11 4 6 7 10 13 17 20 23 25 28 30 31 33 36 38 39 39 39 38 38 37 36 34 33 31 30 28 27 26 25 24 22 21 19 16 14 13
1 3 2 2 3 4 6 7 5 5 3 2 1 2 3 2 2 4 5 3 2 3 1 2 2 6 5 1 5 6 5 5 4 5 6 4 3 3 4 6 7 8 8 8 9 7 7 9 10 5 3 7 8 10 13 17 22 25 28 30 32 35 38 40 39 39 39 39 39 38 36 35 33 32 31 30 29 27 25 23 22 20 17 15 13 12
1 0 2 2 4 5 6 6 6 6 4 1 2 2 3 3 3 1 0 2 1 4 5 4 4 6 5 3 2 4 4 5 4 3 5 5 4 2 2 4 5 6 8 9 9 10 9 9 9 8 6 5 9 13 17 19 20 22 25 28 31 32 34 35 37 38 39 39 38 37 37 36 34 33 32 31 30 28 26 23 21 19 16 14 13 12
1 2 3 3 3 4 1 1 2 3 3 2 2 2 1 3 4 2 1 2 1 3 3 4 4 6 6 5 5 5 5 6 5 4 4 4 3 4 5 4 5 5 6 7 7 8 8 7 7 7 8 8 8 11 17 21 21 22 23 25 28 29 29 31 34 36 38 38 37 37 37 36 35 34 34 32 30 28 26 23 20 18 16 13 12 11
2 1 1 5 6 6 5 6 5 3 3 5 7 8 3 2 2 2 2 1 3 1 2 4 5 6 8 5 7 7 7 7 7 6 5 4 3 5 6 5 6 6 5 6 6 7 7 7 7 6 7 7 8 9 12 20 25 26 28 29 30 31 33 34 36 36 36 36 36 37 38 38 37 36 34 32 30 27 25 22 20 18 15 13 12 11
4 2 3 4 6 6 7 7 6 4 5 7 9 12 8 3 5 3 3 5 3 2 5 7 4 5 8 1 5 4 4 3 5 4 5 6 5 5 5 5 7 7 7 7 6 6 7 7 7 8 10 11 9 9 11 14 20 25 29 33 35 36 37 36 36 37 36 37 37 38 38 38 37 36 34 31 28 26 24 21 19 17 14 13 13 13
4 3 4 4 4 5 5 7 7 6 6 7 8 11 8 2 5 6 6 5 5 4 7 7 4 6 9 2 5 5 5 4 4 5 4 4 4 5 5 6 6 7 7 8 8 7 7 7 7 8 13 17 16 14 14 13 13 15 19 24 28 32 35 36 37 38 37 36 36 37 37 37 35 34 32 29 27 25 23 21 18 16 15 14 14 13
3 3 4 2 2 5 4 6 7 7 7 9 10 8 6 5 6 6 6 6 6 6 9 7 6 8 9 5 6 6 5 4 3 3 5 6 5 5 6 6 5 6 6 7 8 7 7 7 8 9 12 17 18 16 15 17 16 13 14 16 16 18 21 25 30 34 35 32 28 25 26 28 30 30 29 28 27 25 22 20 17 16 15 15 14 13
2 2 3 2 2 5 6 7 8 6 7 9 7 2 2 4 5 5 6 5 4 6 7 6 6 7 6 5 4 2 3 2 4 6 5 5 4 5 6 6 6 6 6 6 6 6 6 7 8 9 10 13 15 16 16 18 19 16 15 16 16 16 15 14 13 14 19 24 25 23 21 22 24 26 26 26 25 23 21 19 17 16 15 14 13 13
2 2 3 5 3 5 6 7 5 4 7 9 5 1 3 6 6 5 5 4 4 6 5 4 5 5 5 5 2 3 4 5 6 5 5 5 4 4 5 6 6 6 6 7 6 6 7 7 8 9 12 14 14 15 17 19 20 19 18 18 19 21 22 21 18 14 12 16 22 26 26 25 25 25 25 25 23 22 20 18 17 16 15 14 13 12
1 1 1 2 0 4 5 4 3 6 7 9 6 6 8 8 6 3 4 4 4 4 4 4 5 5 4 3 3 4 5 6 4 4 4 4 5 4 5 5 5 6 6 6 6 6 6 7 8 11 16 20 19 17 18 20 21 22 23 23 22 23 24 27 29 28 25 22 23 26 28 28 28 27 25 24 22 20 19 18 17 15 14 14 13 11
2 2 3 2 2 4 6 3 6 4 6 8 6 6 7 6 5 3 3 5 5 3 3 4 3 3 2 2 4 3 3 2 1 3 4 5 4 3 4 5 5 5 6 6 7 6 5 7 11 14 18 21 23 23 23 23 24 24 25 27 26 25 26 26 28 30 31 31 30 30 31 31 30 29 27 24 22 21 19 17 16 14 14 13 11 10
4 4 3 2 3 3 2 3 2 7 7 5 3 3 3 4 4 4 3 4 5 3 4 4 2 2 1 2 2 1 3 3 4 6 6 4 1 1 3 5 6 6 6 7 7 6 7 9 12 16 19 22 25 27 28 29 28 27 27 28 26 25 27 30 32 33 33 32 31 31 32 31 29 29 27 25 23 21 18 16 15 14 13 11 10 9
6 5 3 2 2 2 1 3 5 7 5 3 6 7 5 1 2 1 4 3 4 3 4 6 5 4 4 4 4 4 5 4 3 4 5 2 3 2 4 5 6 6 7 8 8 8 10 12 14 16 19 22 26 28 29 31 31 29 28 28 26 27 29 31 32 32 31 30 30 31 31 29 27 25 25 23 21 19 17 16 15 13 11 10 9 8
8 5 3 3 3 3 3 4 3 6 7 6 6 5 6 4 4 5 4 5 5 3 3 6 4 4 4 4 4 4 4 2 1 2 4 2 1 2 5 6 7 8 9 10 12 12 14 16 17 18 21 23 26 28 29 31 32 30 28 27 26 28 29 30 31 31 32 32 32 33 32 29 26 23 21 20 18 17 15 14 13 11 9 8 7 6
8 7 6 4 4 3 3 4 3 4 6 5 5 5 5 1 5 6 3 2 5 4 3 5 2 3 4 4 5 5 6 6 5 4 5 5 4 4 6 7 9 11 13 14 15 15 17 19 20 22 24 25 26 29 29 29 30 30 28 27 27 27 28 29 30 33 35 36 36 36 32 29 26 23 20 18 16 14 12 11 9 8 7 6 5 5
4 5 6 4 3 3 4 4 4 4 5 4 5 8 9 5 3 6 4 3 5 5 3 1 1 4 4 4 4 4 5 5 6 6 5 6 6 6 6 8 10 13 16 17 16 17 19 21 22 25 25 24 26 29 27 24 25 27 28 28 27 27 28 29 31 33 36 37 37 35 32 29 27 24 20 17 14 13 11 9 7 5 4 4 5 7
4 1 4 4 5 3 4 4 3 2 3 3 5 6 7 7 4 7 3 4 5 5 4 2 3 6 5 4 3 0 1 4 6 7 5 5 6 7 7 8 10 12 15 17 18 20 21 22 23 24 24 23 24 26 24 20 21 25 28 28 26 26 28 30 34 36 36 36 35 34 32 30 27 24 21 18 14 11 8 5 3 2 3 5 7 10
4 2 1 3 5 5 5 4 2 1 2 3 4 5 6 7 5 4 2 6 5 5 5 4 5 6 5 4 3 3 5 7 7 8 7 5 6 8 9 11 13 15 16 19 21 22 23 23 23 22 22 21 20 21 20 17 18 23 27 27 26 27 27 28 31 33 35 36 35 34 33 31 28 26 23 18 14 9 5 3 1 3 5 8 11 13
3 3 2 1 2 2 2 3 2 2 2 3 4 4 2 3 1 3 4 4 4 5 5 5 6 6 5 5 5 5 6 7 7 9 9 8 8 8 9 12 13 15 19 22 24 23 21 22 22 20 19 18 17 19 19 16 15 20 23 22 24 27 27 25 25 31 35 35 33 32 31 30 28 25 21 16 11 7 5 2 2 5 8 11 12 12
2 2 3 2 1 1 1 0 1 1 2 4 3 2 0 2 2 4 5 4 4 5 5 5 5 5 5 6 6 7 7 7 7 8 10 10 9 8 9 10 10 13 18 21 22 22 20 19 18 18 18 17 18 20 20 15 11 11 13 15 21 28 30 28 30 34 35 33 32 31 28 26 24 20 17 14 10 7 4 2 4 7 10 11 11 12
2 1 1 1 1 0 0 1 2 2 3 3 3 1 2 3 3 3 4 4 4 4 4 4 5 5 5 6 7 7 7 7 7 8 9 10 9 7 8 9 11 14 17 20 22 22 20 17 17 17 18 18 18 19 18 10 1 8 12 15 21 30 36 36 36 37 35 32 31 29 25 22 20 17 15 13 10 7 5 2 3 6 9 11 11 12
1 1 2 3 2 2 4 5 5 4 4 3 3 3 4 5 4 2 2 4 4 4 4 4 5 6 6 5 6 7 6 7 8 8 8 9 8 7 8 10 13 16 18 20 22 22 18 16 15 15 18 19 18 16 13 4 11 17 18 22 29 34 36 37 38 36 33 30 27 25 23 21 20 18 15 12 9 7 6 4 3 5 8 10 12 13
2 1 1 3 2 3 4 4 4 4 4 4 4 4 4 4 4 3 3 4 5 5 5 5 6 7 6 5 6 6 7 8 8 8 8 8 7 7 8 10 14 16 18 19 21 21 17 14 12 14 17 18 15 11 6 5 16 20 20 26 34 36 36 37 37 34 31 29 27 26 25 23 21 18 14 11 9 8 6 4 3 5 8 10 12 13
3 2 1 2 2 3 4 4 5 6 6 5 5 5 4 4 5 4 4 5 6 6 6 6 6 7 6 6 6 7 9 8 8 9 8 6 6 7 7 8 12 15 17 19 20 20 16 11 10 14 16 15 12 3 6 13 19 23 24 26 33 36 36 36 35 31 30 29 28 28 27 24 20 16 12 10 9 8 6 4 4 6 8 9 11 12
4 4 4 3 3 3 5 7 9 8 8 6 5 5 5 5 6 6 5 6 7 7 7 7 7 6 6 7 8 8 9 8 8 9 7 5 6 6 6 8 12 15 18 21 22 18 13 10 10 14 17 15 6 8 19 22 23 26 26 26 31 35 34 34 33 32 31 30 29 27 24 21 17 14 12 11 10 7 5 4 5 6 6 6 8 10
4 5 4 4 5 6 7 9 9 8 7 6 5 6 6 6 6 7 6 6 7 7 8 7 7 6 7 8 8 8 8 8 8 8 7 6 5 5 7 10 13 16 19 21 19 14 12 10 10 15 21 16 5 16 22 24 26 26 23 23 30 35 35 33 33 32 30 27 24 22 20 17 14 14 14 12 9 6 5 4 4 3 3 5 6 8
4 6 5 4 4 6 6 7 6 5 7 8 7 8 8 7 6 7 7 7 7 8 8 8 8 8 8 9 9 7 7 9 8 7 6 6 5 6 9 12 14 16 19 19 16 12 11 11 12 17 21 11 11 21 23 25 25 19 16 19 28 34 34 32 31 29 27 23 20 19 17 15 15 16 14 11 7 5 5 4 2 1 3 5 7 8
5 6 6 4 5 7 9 9 7 5 6 8 8 8 7 6 6 8 8 8 8 9 8 8 8 8 8 9 11 9 7 8 8 6 5 5 7 10 12 13 14 16 18 18 16 13 14 15 16 16 13 6 20 26 26 24 19 14 16 22 27 31 33 33 30 27 24 22 20 18 16 16 17 17 13 9 6 7 7 4 1 3 5 6 7 9
Wind_Direction
138 183 268 221 230 230 234 212 188 191 166 169 115 125 220 253 305 280 281 318 329 142 118 179 216 249 254 277 271 275 311 193 181 164 175 189 186 185 182 183 183 184 187 179 176 176 174 175 175 172 171 172 174 175 174 172 171 165 159 159 156 154 156 161 166 166 164 159 156 155 146 140 146 148 141 132 128 129 151 184 175 135 114 118 127 117
96 195 242 228 223 216 224 205 163 133 110 119 92 19 299 287 302 294 299 327 5 106 343 16 38 310 288 282 287 298 307 246 230 191 184 191 191 192 188 186 186 186 178 165 171 174 174 176 174 171 170 172 174 175 176 175 172 170 167 163 160 160 162 167 173 172 168 160 156 159 154 151 154 150 144 137 126 122 143 164 164 146 128 127 129 118
17 237 244 238 220 189 187 139 122 103 88 92 88 46 308 283 295 309 318 331 13 84 305 1 41 298 283 268 264 271 256 249 233 209 201 191 190 196 191 190 187 179 163 159 169 172 175 179 176 171 172 176 177 176 177 177 174 173 174 170 164 165 165 167 172 171 169 163 162 163 155 152 154 148 149 142 130 120 119 125 132 142 164 178 166 147
269 242 241 234 189 158 185 112 83 68 62 90 98 93 281 281 73 318 309 329 2 57 179 43 18 295 291 299 263 225 219 254 264 242 235 197 192 200 194 190 186 172 162 167 172 174 178 180 178 176 177 178 176 176 178 178 177 178 180 177 172 171 169 168 173 179 178 167 163 162 152 150 152 150 152 145 142 139 125 127 124 80 286 270 217 201
243 252 245 190 170 173 176 172 94 90 340 293 161 152 232 274 212 195 266 326 354 350 80 76 17 318 309 318 291 272 207 262 275 264 264 237 209 209 198 190 188 174 167 171 173 174 176 182 185 183 181 178 176 178 180 180 180 182 183 181 178 176 174 172 174 181 180 168 160 158 152 150 152 155 159 157 161 171 168 167 161 119 1 44 95 177
249 256 248 147 188 187 174 202 183 144 176 306 246 198 210 242 243 228 315 21 28 342 310 66 36 298 310 310 272 283 321 299 263 232 249 247 216 194 194 193 195 186 177 172 171 175 179 187 189 184 180 177 179 183 183 183 184 185 185 185 182 180 177 175 176 178 178 172 169 168 165 161 161 166 175 176 174 178 179 182 178 130 96 74 78 121
262 262 196 183 194 187 179 219 218 146 124 299 248 202 202 221 235 260 98 94 100 253 283 49 140 254 307 300 259 269 298 292 279 233 240 247 216 182 195 200 194 184 179 175 171 175 181 187 186 183 182 181 183 186 185 185 188 188 188 188 188 185 181 180 180 181 182 180 179 182 183 180 175 176 181 186 183 180 184 186 176 137 107 88 78 85
280 325 141 154 137 131 130 239 228 134 117 235 242 196 211 231 207 200 143 147 196 229 316 4 122 226 285 267 260 277 297 292 288 266 246 245 226 200 202 203 191 175 172 171 172 177 183 187 186 184 186 187 187 186 185 187 190 190 190 191 192 190 187 186 187 189 191 190 188 189 190 188 187 185 183 189 188 186 191 189 176 157 130 110 93 82
267 287 195 153 122 136 171 219 208 134 129 242 237 193 199 187 173 155 114 133 186 68 324 313 39 231 273 275 282 293 283 285 285 274 256 242 227 210 205 204 193 179 172 171 174 181 187 189 188 186 186 188 188 186 187 190 192 193 192 192 193 193 192 191 193 194 196 196 192 189 189 189 191 191 189 192 192 189 189 184 178 172 162 147 123 110
246 232 208 146 137 193 218 226 182 142 197 244 206 168 66 93 121 104 103 110 45 48 273 269 341 122 272 284 300 311 271 272 277 272 257 238 227 213 203 204 200 181 169 175 179 181 187 190 190 186 184 186 188 189 189 191 192 193 193 193 194 194 195 194 196 198 198 197 194 190 189 190 192 194 194 194 194 194 192 188 187 180 176 186 186 173
268 254 201 144 169 192 203 221 178 168 204 211 138 136 17 17 23 33 70 84 58 341 262 249 194 148 282 286 264 244 249 267 279 285 276 243 223 216 204 202 208 192 167 173 182 184 188 191 188 183 181 184 188 189 189 191 193 193 193 195 196 196 196 197 198 201 200 199 198 194 193 195 197 197 195 192 192 196 199 200 199 193 190 195 200 212
323 339 221 219 196 165 163 234 267 189 157 84 99 111 51 339 2 19 357 39 79 258 263 259 167 135 215 271 256 248 262 276 270 273 285 259 215 217 211 203 211 206 177 164 176 185 185 184 181 179 181 183 186 188 190 191 193 193 194 196 196 196 197 198 199 201 202 201 201 200 199 202 200 198 197 196 196 200 204 205 204 199 198 201 205 212
326 260 259 291 244 153 134 251 311 353 43 80 86 79 85 327 5 12 314 334 212 250 259 256 124 136 232 254 257 262 271 285 279 266 275 253 209 210 213 211 215 212 183 159 166 178 179 176 175 178 182 183 186 189 191 192 192 191 193 195 196 197 197 198 199 201 203 204 205 203 203 206 204 202 203 203 205 208 208 209 210 206 203 206 211 213
322 302 316 345 296 200 134 165 265 319 32 128 144 118 123 118 60 290 275 286 257 262 260 242 195 234 286 263 241 242 257 276 286 284 281 258 224 218 218 210 212 214 191 165 164 170 174 177 178 181 184 185 190 193 192 192 192 191 193 196 198 200 198 198 199 201 204 206 208 207 206 209 209 209 210 210 213 215 212 212 215 215 213 213 216 218
183 302 298 153 279 259 165 184 186 170 163 181 168 134 140 147 148 211 226 214 245 268 278 285 243 199 214 257 257 267 298 313 334 339 338 329 311 295 288 260 198 210 191 167 167 171 176 180 182 184 186 189 193 195 193 192 192 193 195 198 201 201 199 198 200 201 204 207 209 209 210 213 214 214 214 215 219 220 215 214 216 219 219 219 219 222
158 240 254 242 253 164 19 296 159 126 150 248 144 104 143 182 162 182 197 186 190 259 291 291 247 211 201 271 307 358 7 16 32 27 18 4 1 17 12 6 2 269 201 176 174 175 179 182 184 186 188 193 195 194 193 192 192 194 197 199 201 202 200 199 201 202 204 207 208 209 212 214 216 217 216 217 219 219 216 216 218 220 220 218 218 219
137 249 272 313 356 88 55 334 321 166 218 254 130 159 227 170 139 165 260 222 102 200 272 252 245 287 330 314 332 29 32 30 40 37 32 27 25 32 32 26 19 7 1 340 197 191 189 183 186 190 191 193 194 192 193 194 194 196 198 199 200 202 201 200 202 204 204 205 206 208 211 214 216 216 216 216 216 215 216 217 218 218 216 215 217 218
140 265 288 350 4 326 50 351 325 248 136 92 204 229 241 61 84 118 268 348 33 239 275 296 237 274 341 298 331 30 33 30 41 42 38 39 40 37 29 33 33 22 12 7 5 279 226 199 192 193 195 197 194 193 194 195 196 197 198 199 199 200 202 201 203 204 205 204 205 207 210 214 216 217 218 218 217 216 214 214 215 215 212 212 215 219
120 310 290 332 350 299 348 37 347 338 39 79 226 255 230 68 341 85 157 254 261 234 280 310 279 256 199 225 339 32 36 36 44 47 40 33 38 37 25 29 36 34 23 6 6 10 331 244 221 205 199 199 198 196 196 195 196 197 198 199 199 201 204 203 203 204 205 205 205 208 212 215 218 219 221 220 219 217 214 212 212 211 209 210 214 218
90 106 274 302 326 306 357 39 10 327 357 31 11 353 31 155 176 177 178 174 175 206 249 304 315 286 229 209 129 78 70 72 66 60 48 29 28 32 25 23 28 35 37 13 358 13 46 39 285 249 220 206 200 198 197 195 195 197 198 199 200 202 203 202 202 203 205 206 207 210 213 216 219 221 221 220 218 217 216 214 212 211 211 212 215 219
45 96 240 296 333 338 332 92 140 60 349 2 351 337 332 321 217 202 286 130 135 161 187 220 281 267 249 213 138 110 99 102 99 89 72 43 28 24 22 21 17 17 21 20 13 6 18 46 23 281 267 246 216 203 199 196 196 197 197 198 199 201 201 201 202 202 205 207 209 211 213 216 218 220 220 220 219 219 217 215 214 214 215 217 220 223
50 105 195 296 337 318 266 253 190 200 228 191 226 266 268 266 293 352 292 290 109 142 168 171 230 258 251 205 147 124 115 119 112 99 90 68 43 25 17 18 11 7 6 7 17 15 1 360 360 244 231 253 240 216 204 201 200 197 197 198 199 200 201 202 203 203 206 208 210 212 214 215 217 218 219 219 218 218 217 215 215 215 217 220 223 227
143 108 122 238 249 242 269 283 304 300 249 176 181 227 203 135 103 138 235 262 220 190 171 131 215 262 257 166 128 125 126 127 118 99 89 79 68 41 15 6 1 358 355 354 5 14 2 353 347 305 206 201 214 216 208 204 202 200 200 201 200 201 203 205 206 206 206 208 211 213 213 214 215 216 217 217 216 216 215 214 214 215 219 222 223 228
102 79 72 295 294 314 315 312 334 359 27 67 341 352 73 74 107 162 195 195 187 224 167 107 261 268 281 346 108 123 123 108 94 88 82 65 63 68 28 3 354 351 353 353 352 351 352 357 357 336 243 209 209 218 215 208 204 203 205 204 203 204 206 207 207 207 206 208 211 210 210 211 213 213 214 214 214 214 213 213 212 215 220 222 224 231
260 122 91 12 323 331 345 344 343 350 12 53 284 301 77 56 17 351 228 100 192 227 166 155 243 254 269 311 78 115 98 73 52 67 84 62 35 42 26 6 1 0 1 357 352 350 351 356 359 351 327 272 231 217 212 211 212 214 213 210 207 208 210 210 209 208 208 209 208 206 207 208 209 211 212 212 212 212 212 212 214 217 220 223 226 234
197 182 134 135 240 261 282 290 268 282 306 298 262 263 69 33 354 340 18 56 266 250 173 167 241 267 284 326 11 24 29 27 4 12 58 62 30 1 353 3 14 20 17 8 2 357 354 355 355 360 6 348 307 254 227 220 221 225 224 220 215 213 213 215 215 212 209 208 206 204 204 205 207 209 210 211 211 211 212 213 215 218 221 224 229 236
93 63 163 161 188 205 197 216 224 222 279 289 287 287 289 92 86 71 70 206 215 238 282 233 226 273 293 339 24 9 4 359 341 349 4 355 355 355 350 358 10 21 24 17 13 4 355 350 344 0 33 19 346 312 268 243 233 230 227 223 221 217 216 216 217 214 210 207 205 203 202 203 204 206 207 209 210 210 211 211 213 217 220 225 231 236
84 342 281 188 209 217 196 213 233 233 256 264 273 282 280 139 136 173 221 229 184 104 284 257 206 258 283 37 70 338 315 330 318 308 314 326 349 5 6 12 9 7 5 1 2 358 349 339 334 343 355 352 346 343 320 276 251 242 235 228 224 220 218 216 214 213 210 207 205 204 203 202 202 203 204 206 207 207 207 207 210 214 217 222 229 235
111 268 261 205 245 257 219 222 233 231 247 249 245 262 276 244 188 209 223 211 153 155 251 251 190 236 269 186 154 237 237 210 252 270 300 350 17 25 22 23 8 354 348 345 343 342 342 341 338 341 345 342 336 337 342 327 295 272 256 245 236 228 224 218 212 209 208 207 205 204 202 199 198 199 200 200 201 202 203 204 207 210 214 221 229 236
131 254 264 202 257 289 267 246 239 232 244 253 250 247 244 233 223 225 230 208 183 208 243 247 227 240 257 231 205 242 252 234 268 344 23 29 33 35 26 12 347 332 331 334 336 339 342 344 344 350 354 348 336 330 337 336 321 298 272 262 257 249 237 223 213 209 205 201 201 200 197 194 192 193 194 196 197 198 200 202 205 210 216 223 231 238
54 288 311 53 14 307 280 253 247 247 250 256 267 270 198 236 246 243 242 222 214 243 247 248 259 263 268 258 246 298 315 341 32 39 38 25 20 30 19 346 326 326 331 338 340 342 346 345 343 346 351 348 337 329 328 326 319 305 280 260 249 244 235 223 221 220 206 193 189 189 191 191 190 190 192 194 196 197 199 201 205 213 220 226 232 238
7 299 348 46 21 293 272 258 271 333 314 282 268 172 208 252 259 243 241 223 210 242 261 281 282 274 282 289 312 38 44 57 52 37 23 2 349 357 344 328 329 337 343 344 340 341 345 343 341 336 331 332 330 323 316 311 307 302 292 274 252 236 224 217 217 225 223 204 189 184 187 192 192 191 193 195 197 198 198 200 207 214 221 228 233 238
185 231 323 70 285 272 269 279 351 14 332 288 250 191 201 234 252 279 296 269 228 222 236 246 243 239 260 312 26 33 44 58 40 10 1 325 300 305 322 328 331 328 330 330 322 325 330 324 325 323 321 322 321 317 312 306 297 292 290 284 268 244 227 219 213 208 207 204 194 187 188 191 189 188 191 194 197 198 197 201 208 216 225 230 231 235
221 228 237 163 155 257 272 336 17 345 280 258 234 186 175 186 197 205 241 243 234 205 171 191 224 242 251 73 64 19 13 40 321 283 277 277 278 311 339 335 318 306 310 307 297 293 294 300 308 312 314 316 315 315 314 309 300 294 289 285 271 247 227 215 204 195 191 191 193 192 191 190 187 186 189 191 194 198 199 204 213 221 226 225 223 231
249 244 239 183 161 233 276 45 351 273 247 229 251 238 186 146 151 192 220 217 221 209 139 139 184 216 175 117 117 301 293 278 267 264 268 268 189 101 342 322 305 300 302 299 289 281 283 291 300 306 311 312 312 312 312 307 304 301 292 281 266 242 222 207 195 189 187 188 189 189 187 186 185 186 187 186 191 197 202 211 217 216 214 216 221 229
228 221 216 213 190 201 137 143 225 262 268 274 298 297 285 326 87 247 284 279 255 238 146 147 183 207 207 217 231 250 258 257 253 251 257 251 106 64 338 314 297 290 283 280 276 272 279 287 292 297 301 304 305 304 302 301 300 298 291 278 258 233 215 202 194 190 187 184 182 181 182 183 183 184 183 182 190 201 206 208 207 202 203 210 215 218
210 200 194 224 214 193 199 207 245 308 311 284 272 267 255 229 167 174 228 261 274 272 152 150 186 233 233 232 248 270 284 319 358 250 249 246 174 305 311 300 291 287 280 279 278 275 282 289 293 297 299 299 298 295 294 295 294 290 283 271 251 228 210 198 190 185 179 175 174 174 175 176 177 180 182 185 193 201 201 197 191 188 194 202 206 219
212 194 174 200 213 174 204 248 286 300 282 266 265 289 313 313 146 135 130 267 277 271 189 154 176 273 298 312 316 338 358 354 331 275 250 258 271 285 292 286 284 287 288 287 284 285 293 299 300 304 304 298 293 289 288 290 290 284 276 264 246 224 206 195 187 179 172 170 170 168 168 169 172 175 180 185 190 186 178 175 174 176 189 207 226 252
250 201 153 174 219 144 164 226 243 238 248 276 311 326 340 346 102 95 65 295 275 276 255 158 302 289 291 298 309 3 15 330 298 278 245 247 268 284 289 286 287 290 293 294 292 291 298 304 305 306 303 295 290 291 289 289 289 280 268 258 242 219 202 192 184 176 171 168 165 163 164 165 165 168 173 175 172 165 158 158 163 175 204 241 269 286
344 15 126 172 229 201 180 217 238 228 252 310 331 325 320 320 32 68 43 267 262 275 265 229 271 274 264 256 256 343 298 263 273 281 265 252 272 278 276 280 287 295 300 304 304 303 305 307 306 303 298 292 294 298 294 291 291 280 263 249 231 211 199 191 183 175 169 164 160 159 161 162 162 166 170 165 156 148 147 147 154 196 258 279 285 285
351 346 149 193 238 234 217 233 268 280 266 291 299 292 305 333 27 85 208 238 239 259 248 204 219 244 240 236 230 216 230 238 258 283 290 297 299 292 287 290 296 304 309 310 311 309 306 305 303 297 293 295 305 309 300 290 291 281 261 240 217 201 196 192 182 169 159 155 153 154 159 162 163 162 158 149 139 133 133 136 200 261 271 275 272 268
342 330 322 337 289 252 217 224 270 315 280 252 264 278 308 0 32 204 236 247 228 238 239 214 219 229 218 219 228 235 248 256 272 291 300 303 300 294 297 303 308 312 313 312 312 307 302 301 298 293 294 301 312 317 312 303 292 273 251 226 200 188 184 179 164 149 144 143 144 148 156 158 154 146 136 129 124 121 128 163 244 258 261 261 258 258
314 319 324 339 323 305 340 283 178 334 270 234 244 305 3 155 223 262 286 288 251 244 251 244 238 232 223 237 250 252 263 278 286 292 296 296 293 289 292 298 303 306 309 310 308 303 299 295 291 291 298 306 314 320 320 313 290 249 214 189 172 164 157 148 138 132 132 137 142 148 152 146 135 127 122 120 119 118 127 187 248 256 256 253 251 258
319 337 286 309 310 168 248 252 205 222 256 223 199 254 250 233 260 287 294 290 285 279 268 261 263 256 242 253 268 268 270 276 276 279 283 285 286 286 288 293 298 300 304 305 303 299 295 291 289 295 304 311 319 324 323 319 218 135 126 125 132 134 131 130 128 127 130 137 142 142 140 132 125 123 122 122 125 134 147 190 248 254 251 246 248 259
331 65 197 234 250 217 217 232 234 242 253 231 209 226 239 246 250 228 229 262 271 264 249 246 267 273 260 252 264 268 264 261 261 265 271 276 281 280 281 292 298 299 303 306 302 296 290 288 292 301 308 316 324 326 325 7 112 116 113 117 123 124 124 126 127 127 133 140 140 136 133 131 130 129 131 137 147 156 164 188 234 240 236 237 246 255
259 299 200 216 267 303 281 263 274 285 275 260 240 226 223 239 244 239 253 261 251 250 252 244 248 258 255 247 254 260 259 259 264 268 269 273 277 277 282 293 299 300 303 305 302 295 290 291 302 309 312 320 328 322 315 94 110 116 119 124 127 126 125 126 128 133 141 144 142 139 137 137 135 134 139 153 159 157 162 180 205 215 223 233 244 250
277 319 349 245 270 315 298 285 305 303 282 268 257 241 234 245 252 254 254 250 249 252 253 246 242 246 247 244 248 259 264 266 270 276 278 273 273 279 285 292 298 302 303 302 300 295 289 292 311 314 312 319 327 301 163 133 123 125 126 125 126 127 129 132 136 141 144 142 139 138 138 138 137 137 145 161 164 155 154 171 197 208 221 236 243 245
293 331 334 289 261 262 264 278 294 288 266 253 248 250 256 260 264 264 253 246 254 258 253 249 245 246 258 261 257 261 268 270 271 273 272 265 268 277 283 290 299 304 303 300 298 291 283 291 309 308 306 310 309 158 147 139 137 138 138 136 135 136 138 140 140 140 139 139 139 139 137 136 137 142 154 161 157 148 151 183 204 212 228 249 253 254
271 294 289 280 289 289 280 288 301 300 289 280 268 267 272 266 262 269 273 275 273 264 259 258 251 246 258 266 264 263 269 274 272 263 259 262 268 276 286 295 301 301 299 298 296 286 284 297 302 297 299 297 219 151 145 148 154 157 157 155 149 145 143 140 138 137 137 137 138 137 134 133 140 152 155 150 145 150 167 180 188 211 260 279 281 282
256 266 257 260 284 282 274 280 288 294 296 292 285 280 276 269 269 280 287 292 286 272 263 264 268 272 270 265 264 263 269 276 269 250 248 263 269 279 291 298 300 298 296 296 297 292 294 303 301 295 293 275 164 145 146 160 173 178 174 158 147 142 141 138 132 129 128 129 131 133 135 140 148 150 146 139 141 156 159 156 160 287 315 310 307 303
224 244 245 233 243 254 262 268 266 262 271 277 279 279 271 266 274 279 279 281 279 272 262 257 266 279 280 276 274 266 258 265 262 246 250 271 278 289 297 297 293 291 289 292 299 299 294 297 296 289 279 188 146 148 158 171 179 173 159 151 146 143 142 135 126 121 122 127 131 132 136 145 147 144 140 136 138 143 142 135 67 359 354 340 323 310